Regional Weather Roundup
Issued by NWS

Home | Current Version | Previous Version | Text Only | Print | Product List | Glossary Off
Versions: 1 2 3 4 5 6 7 8 9 10 11 12 13 14 15 16 17 18 19 20 21 22 23 24 25 26 27 28 29 30 31 32 33 34 35 36 37 38 39 40 41 42 43 44 45 46 47 48 49 50

000
ASUS44 KMEG 250710
RWRTN
TENNESSEE HOURLY STATE WEATHER ROUNDUP
NATIONAL WEATHER SERVICE MEMPHIS TN
200 AM CDT WED APR 25 2018

TNZ002-004-019-021-049-052-054-088>092-250800-
WEST TENNESSEE

CITY           SKY/WX    TMP DP  RH WIND       PRES   REMARKS
MEMPHIS INTL   FAIR      54  53  97 CALM      30.01F
NWS MEMPHIS      N/A     51 N/A N/A MISG        N/A
JACKSON        FOG       51  51 100 CALM      29.99F VSB 3/4
DYERSBURG      FAIR      54  53  97 W5        30.01F FOG
SOMERVILLE     CLOUDY    52  52 100 CALM      29.99F FOG
COVINGTON      MOCLDY    52  52 100 CALM      30.01S FOG
UNION CITY     MOCLDY    54  54 100 CALM      29.98F
BOLIVAR        FOG       50  50 100 CALM      30.00F VSB 0
PARIS          CLOUDY    52  52 100 CALM      29.98F
HUNTINGDON     CLOUDY    54  54 100 CALM      29.98F
LEXINGTON      CLOUDY    54  54 100 W5        29.98F
SELMER         PTCLDY    54  52  94 CALM      29.99S FOG
SAVANNAH       PTCLDY    52  50  93 CALM      29.99S FOG
$$

TNZ008-025-027-028-033-062-065-066-250800-
NORTH MIDDLE TENNESSEE

CITY           SKY/WX    TMP DP  RH WIND       PRES   REMARKS
NASHVILLE      MOCLDY    56  52  86 NW6       29.94F
PORTLAND       CLOUDY    54  54 100 N6        29.93F
CLARKSVILLE    FAIR      54  51  90 W6        29.95F
SMYRNA         CLOUDY    56  53  90 NW5       29.95F
COOKEVILLE     CLOUDY    55  54  94 CALM      29.92S
LIVINGSTON     CLOUDY    54  52  94 NW6G13    29.90F
GALLATIN       CLOUDY    57  52  82 NW6       29.97S
CROSSVILLE     CLOUDY    52  50  93 NW6       29.91F
ROCKWOOD       CLOUDY    54  52  94 CALM      29.89S
$$

TNZ061-075-076-078-094-096-097-250800-
SOUTH MIDDLE TENNESSEE

CITY           SKY/WX    TMP DP  RH WIND       PRES   REMARKS
LEWISBURG      CLOUDY    55  54  94 CALM      29.95S
FAYETTEVILLE   MOCLDY    55  55 100 CALM      29.93F
TULLAHOMA      CLOUDY    55  52  88 NW8       29.93F
WINCHESTER     CLOUDY    55  54  94 N6        29.93F
MCMINNVILLE    CLOUDY    55  52  88 NW3       29.93F
COLUMBIA       CLOUDY    55  55 100 CALM      29.95S
SHELBYVILLE    CLOUDY    55  54  94 NW5       29.94F
$$

TNZ017-018-042-046-047-250800-
NORTHEAST TENNESSEE

CITY           SKY/WX    TMP DP  RH WIND       PRES   REMARKS
TRI CITIES     CLOUDY    55  55 100 NW6       29.82F
ELIZABETHTON   CLOUDY    55  55 100 W6        29.82F FOG
$$

TNZ012-013-036-069-073-074-250800-
CENTRAL EAST TENNESSEE

CITY           SKY/WX    TMP DP  RH WIND       PRES   REMARKS
KNOXVILLE      CLOUDY    55  55 100 SW3       29.86F
OAK RIDGE      CLOUDY    57  57 100 CALM      29.88F
DOWNTOWN KNOXV CLOUDY    57  57 100 W3        29.87F
GATLINBURG     CLOUDY    57  55  94 CALM      29.86F
MORRISTOWN     CLOUDY    55  55 100 CALM      29.85F
JACKSBORO      MOCLDY    57  52  82 CALM      29.91S
$$

TNZ083-085-099-250800-
SOUTHEAST TENNESSEE

CITY           SKY/WX    TMP DP  RH WIND       PRES   REMARKS
CHATTANOOGA    FAIR      58  51  78 N6        29.90F
DAYTON         CLOUDY    59  55  88 NW5       29.89F
$$

SKY/WX REPORTED AS FAIR MEANS FEW OR NO CLOUDS BELOW
12 THOUSAND FEET.




USA.gov is the U.S. government's official web portal to all federal, state and local government web resources and services.